Location: Newark
(44.2003°N, 3.2583°E)
Time: 06:54:51
(UTC+00:00)

Explorer 7 - Pass Details

Date: 23 October 2019
Orbit: 485 x 680 km, 50.3° (Epoch: 17 November)

Event Time Altitude Azimuth Distance (km) Brightness Sun altitude
Rises 10:12:46 0° 236° (SW) 2,570 10.4 31.6°
Reaches altitude 10° 10:14:57 10° 235° (SW) 1,676 9.5 31.8°
Maximum altitude 10:18:43 77° 150° (SSE) 501 7.4 32.0°
Drops below altitude 10° 10:22:28 10° 64° (ENE) 1,670 9.3 32.3°
Sets 10:24:39 0° 63° (ENE) 2,561 10.2 32.4°
